Regional Weather Roundup
Issued by NWS

Home | Current Version | Previous Version | Text Only | Print | Product List | Glossary On
Versions: 1 2 3 4 5 6 7 8 9 10 11 12 13 14 15 16 17 18 19 20 21 22 23 24 25 26 27 28 29 30 31 32 33 34 35 36 37 38 39 40 41 42 43 44 45 46 47 48 49 50
000
ASUS44 KLIX 260912
RWRLA
LOUISIANA WEATHER ROUNDUP
NATIONAL WEATHER SERVICE NEW ORLEANS LA
400 AM CDT TUE MAY 26 2015

NOTE: "FAIR" INDICATES FEW OR NO CLOUDS BELOW 12,000 FEET WITH NO
      SIGNIFICANT WEATHER AND/OR OBSTRUCTIONS TO VISIBILITY.
      SKY/WX - SKY CONDITION AND SIGNIFICANT WEATHER.
      TMP - AIR TEMPERATURE.    DP   - DEWPOINT TEMPERATURE.
      RH  - RELATIVE HUMIDITY.  PRES - PRESSURE.
      HX  - HEAT INDEX.         WCI  - WIND CHILL INDEX.

*  THESE STATIONS ARE NOT NWS OR FAA STATIONS AND ARE NOT UNDER
   NWS QUALITY CONTROL.

LAZ040-048-061>063-065-066-069-261000-
SOUTHEAST LOUISIANA

CITY           SKY/WX    TMP DP  RH WIND       PRES   REMARKS
N.O. AUDUBON     N/A     79  76  92 MISG        N/A
N.O. INTL ARPT TSTM      75  70  84 NW26G35   30.08R
N.O. LAKEFRONT MOCLDY    80  75  84 S10       30.03S
SLIDELL        MOCLDY    78  77  96 S7        30.02S
BATON ROUGE    LGT RAIN  64  62  93 N6        30.12R
BOOTHVILLE     CLEAR     79  76  90 S7        30.05F
BELLE CHASSE   MOCLDY    78  74  87 S7        30.03S
BOGALUSA*        N/A     73  69  88 CALM      30.05R
GALLIANO*      PTSUNNY   81  75  82 S8        30.04S
NEW ROADS*     RAIN      64  63  94 N7        30.10F
GONZALES*      RAIN      64  64 100 N12       30.12R
HAMMOND*       TSTM      64  61  88 NW17G23   30.12R
HOUMA*         TSTM      67  63  87 W25G49    30.07R
PORT FOURCHON* MOSUNNY   81  77  89 S10G18    30.04F

$$

LAZ041-044-053-054-261000-
SOUTHWEST LOUISIANA

CITY           SKY/WX    TMP DP  RH WIND       PRES   REMARKS
LAKE CHARLES   LGT RAIN  66  64  93 CALM      30.08R
LAFAYETTE      LGT RAIN  65  63  93 NE6       30.10F
PATTERSON      CLOUDY    64  63  94 N9        30.14R
SALT POINT       N/A     65  63  93 N9        30.11F
NEW IBERIA     LGT RAIN  66  63  90 NE12      30.10F
CHENAULT AIRPK LGT RAIN  65  64  97 SE6       30.09R

$$

LAZ027-028-261000-
CENTRAL LOUISIANA

CITY           SKY/WX    TMP DP  RH WIND       PRES   REMARKS
FORT POLK      CLOUDY    64  63  94 SE8       30.02F
ALEXANDRIA INT LGT RAIN  64  63  96 SE10      30.05F
ALEXANDRIA     CLOUDY    65  63  93 S3        30.07F

$$

LAZ001-002-261000-
NORTHWEST LOUISIANA

CITY           SKY/WX    TMP DP  RH WIND       PRES   REMARKS
SHREVEPORT     CLOUDY    64  62  93 S5        29.95F
BARKSDALE AFB  NOT AVBL
DTN SHREVEPORT CLOUDY    64  61  90 SE8       29.95F

$$

LAZ014-016-261000-
NORTHEAST LOUISIANA

CITY           SKY/WX    TMP DP  RH WIND       PRES   REMARKS
MONROE         LGT RAIN  64  63  96 SE9       30.03F
TALLULAH       LGT RAIN  64  62  93 S6        30.08R

$$



USA.gov is the U.S. government's official web portal to all federal, state and local government web resources and services.